Hlavní strana
METAR-TAF:

METAR-TAF

Letiště :

Lawrenceville-Vincennes International Airport

Lawrenceville, Illinois, Spojené státy americké

zeměpisná šířka: 38-45-38N, zeměpisná délka: 087-35-56W, výška: 131 m

Aktuální stav počasí

Zpráva byla vytvořena před 41 minutami, v 13:53 UTC
Jihojihozápadní vítr 6 kt
Teplota 4°C
Vlhkost vzduchu 81%
Tlak 1018 hPa
Viditelnost: 8.0 km
Jasno
zákal

METAR: KLWV 031353Z AUTO 20006KT 5SM HZ CLR 04/01 A3007 RMK AO2 SLP186 T00390006

Čas: 08:34 (14:34 UTC)


TAF: chybějící

Stav a předpovědi počasí z více než 4 000 letišť (zprávy METAR a TAF).

Červené a žluté tečky na mapě představují dostupné meteorologické stanice.

Když kurzor umístíte na tečku, zobrazí se název stanice.

Pak kliknutím zobrazíte stav a předpověď počasí.

Chcete-li změnit mapu, kliknutím na zelené tlačítko se znaménkem +mapu přiblížíte, kliknutím na zelené tlačítko se znaménkem – mapu oddálíte a kliknutím na zelené šipky přejdete na sousední mapy.


METAR-TAF: